Satellite: AO-27
Catalog number: 22825
Epoch time:      06186.50977488
Element set:    0442
Inclination:      098.2833 deg
RA of node:       167.4396 deg
Eccentricity:    0.0007779
Arg of perigee:   202.6684 deg
Mean anomaly:     157.4151 deg
Mean motion:   14.29176894 rev/day
Decay rate:       -4.7e-07 rev/day^2
Epoch rev:           66597
Checksum:              365

Satellite: IO-26
Catalog number: 22826
Epoch time:      06186.47645834
Element set:    0133
Inclination:      098.2777 deg
RA of node:       168.6089 deg
Eccentricity:    0.0008312
Arg of perigee:   200.7007 deg
Mean anomaly:     159.3845 deg
Mean motion:   14.29420989 rev/day
Decay rate:        1.1e-07 rev/day^2
Epoch rev:           66604
Checksum:              323

Satellite: PO-28
Catalog number: 22829
Epoch time:      06187.51091200
Element set:     415
Inclination:      098.2676 deg
RA of node:       170.7944 deg
Eccentricity:    0.0009802
Arg of perigee:   171.6917 deg
Mean anomaly:     188.4414 deg
Mean motion:   14.30115216 rev/day
Decay rate:       -3.3e-07 rev/day^2
Epoch rev:           66640
Checksum:              298

Satellite: TO-31
Catalog number: 25396
Epoch time:      06187.63035298
Element set:     568
Inclination:      098.4771 deg
RA of node:       247.2593 deg
Eccentricity:    0.0003248
Arg of perigee:   128.1688 deg
Mean anomaly:     231.9794 deg
Mean motion:   14.23708398 rev/day
Decay rate:        7.5e-07 rev/day^2
Epoch rev:           41511
Checksum:              340

Satellite: GO-32
Catalog number: 25397
Epoch time:      06186.68068835
Element set:    0054
Inclination:      098.4660 deg
RA of node:       243.0519 deg
Eccentricity:    0.0001865
Arg of perigee:   133.7688 deg
Mean anomaly:     226.3639 deg
Mean motion:   14.23107566 rev/day
Decay rate:        5.5e-07 rev/day^2
Epoch rev:           41487
Checksum:              329

Satellite: UO-36
Catalog number: 25693
Epoch time:      06186.97506650
Element set:    0084
Inclination:      064.5565 deg
RA of node:       185.0041 deg
Eccentricity:    0.0020402
Arg of perigee:   329.0551 deg
Mean anomaly:     030.9363 deg
Mean motion:   14.78603686 rev/day
Decay rate:       -7.6e-07 rev/day^2
Epoch rev:           38856
Checksum:              316

Satellite: MO-46
Catalog number: 26548
Epoch time:      06187.39626654
Element set:     536
Inclination:      064.5554 deg
RA of node:       172.3218 deg
Eccentricity:    0.0047975
Arg of perigee:   244.3601 deg
Mean anomaly:     115.2555 deg
Mean motion:   14.82989898 rev/day
Decay rate:        9.6e-07 rev/day^2
Epoch rev:           31225
Checksum:              346

Satellite: NO-44
Catalog number: 26931
Epoch time:      06186.61149272
Element set:    0345
Inclination:      067.0538 deg
RA of node:       320.2225 deg
Eccentricity:    0.0006741
Arg of perigee:   255.3396 deg
Mean anomaly:     104.6967 deg
Mean motion:   14.29443326 rev/day
Decay rate:      -1.62e-06 rev/day^2
Epoch rev:           24856
Checksum:              306

Satellite: SO-50
Catalog number: 27607
Epoch time:      06186.85919458
Element set:    0065
Inclination:      064.5588 deg
RA of node:       056.4089 deg
Eccentricity:    0.0041271
Arg of perigee:   140.6199 deg
Mean anomaly:     219.7889 deg
Mean motion:   14.71151580 rev/day
Decay rate:       -7.2e-07 rev/day^2
Epoch rev:           19017
Checksum:              337

Satellite: CO-57
Catalog number: 27848
Epoch time:      06186.59522294
Element set:     763
Inclination:      098.7146 deg
RA of node:       193.9469 deg
Eccentricity:    0.0010343
Arg of perigee:   017.8302 deg
Mean anomaly:     342.3243 deg
Mean motion:   14.20271406 rev/day
Decay rate:       -1.2e-07 rev/day^2
Epoch rev:           15625
Checksum:              306

Satellite: AO-51
Catalog number: 28375
Epoch time:      06186.69210848
Element set:    0571
Inclination:      098.1624 deg
RA of node:       237.8834 deg
Eccentricity:    0.0083961
Arg of perigee:   150.9380 deg
Mean anomaly:     209.6518 deg
Mean motion:   14.40525174 rev/day
Decay rate:        2.5e-07 rev/day^2
Epoch rev:           10583
Checksum:              320

Satellite: XO-53
Catalog number: 28894
Epoch time:      06186.75454317
Element set:     591
Inclination:      098.1642 deg
RA of node:       084.7781 deg
Eccentricity:    0.0018429
Arg of perigee:   113.0444 deg
Mean anomaly:     247.2704 deg
Mean motion:   14.59486811 rev/day
Decay rate:       2.68e-06 rev/day^2
Epoch rev:            3668
Checksum:              339

Satellite: CO-56
Catalog number: 28941
Epoch time:      06186.92790697
Element set:    0139
Inclination:      098.1746 deg
RA of node:       207.5210 deg
Eccentricity:    0.0279220
Arg of perigee:   045.4756 deg
Mean anomaly:     316.9097 deg
Mean motion:   15.25459172 rev/day
Decay rate:     2.7892e-04 rev/day^2
Epoch rev:           02040
Checksum:              341

/EX
SB KEPS @ AMSAT  $ORB06187.W
Orbital Elements  06187.WEATHER

HR AMSAT ORBITAL ELEMENTS FOR WEATHER SATELLITES
FROM WA5QGD FORT WORTH,TX July 6, 2006
Send SUBSCRIBE KEPS/UNSUBSCRIBE KEPS to majordomo@amsat.org only
BID: ORB06187.W
TO ALL RADIO AMATEURS BT

Satellite: NOAA-10
Catalog number: 16969
Epoch time:      06187.07207351
Element set:     266
Inclination:      098.7582 deg
RA of node:       198.7458 deg
Eccentricity:    0.0013352
Arg of perigee:   094.8476 deg
Mean anomaly:     265.4245 deg
Mean motion:   14.27298223 rev/day
Decay rate:       -1.0e-07 rev/day^2
Epoch rev:            2985
Checksum:              331

